Temp
18 17 17 17 18 18 20 21 21 20 20 22 23 22 20 17 19 18 17 18 18 18 18 18 19 19 19 19 19 19 19 19 18 18 18 18 18 17 18 18 18 17 18 18 18 18 18 17 18
18 17 17 17 19 19 21 22 20 21 22 22 22 20 19 17 16 15 16 17 18 18 18 18 19 19 19 19 19 19 19 19 19 18 18 17 18 18 18 17 17 18 18 18 17 17 17 17 17
18 17 17 18 18 20 20 21 21 23 23 23 21 19 18 17 16 15 17 17 18 18 18 19 19 19 19 19 19 19 19 19 18 17 17 18 18 18 18 18 18 18 18 18 17 17 17 17 17
17 17 17 19 19 21 21 21 22 23 23 22 20 17 17 17 16 17 17 18 18 18 18 19 19 19 19 19 19 19 18 18 18 18 17 18 18 18 18 18 18 18 18 17 18 17 17 17 17
17 19 18 19 21 21 20 20 23 24 22 20 20 17 16 15 17 17 17 18 18 18 19 19 19 19 19 19 19 19 19 18 18 18 18 18 18 18 19 18 18 18 18 18 17 17 17 17 17
18 18 19 19 20 22 22 20 21 24 20 18 17 17 16 16 17 17 17 18 18 19 19 19 19 19 19 19 19 19 19 18 18 18 18 18 18 18 19 18 18 18 18 18 17 17 17 17 17
18 17 18 20 21 22 23 17 19 22 20 19 18 17 16 16 17 16 17 18 18 18 19 19 19 19 19 19 19 19 19 18 18 18 18 18 18 18 18 18 18 18 18 18 17 17 17 17 17
19 18 19 20 20 20 22 19 21 21 21 19 19 17 16 16 16 17 17 18 17 19 19 19 19 19 20 19 19 19 19 19 19 19 18 18 18 18 18 18 18 18 18 18 17 17 17 17 17
19 19 19 21 20 20 20 22 22 22 20 21 20 17 17 17 16 17 17 17 17 18 18 19 19 20 20 19 19 19 19 19 19 19 19 19 19 19 18 18 18 18 18 18 18 18 17 17 17
18 17 20 22 22 20 19 21 22 22 21 18 18 17 16 16 16 17 17 17 18 18 18 19 20 20 20 20 19 19 19 19 19 19 19 19 19 18 18 18 18 18 18 18 18 18 18 18 18
20 18 21 23 24 24 23 22 23 21 20 19 16 17 17 16 17 17 17 18 18 19 18 19 20 20 20 20 19 19 19 19 19 19 19 19 19 19 19 19 19 18 18 18 18 18 18 18 18
19 21 22 25 24 25 23 23 22 22 22 21 20 18 17 17 17 17 17 18 19 19 19 20 20 20 20 20 19 19 20 19 19 19 19 19 19 19 19 19 19 19 18 18 18 18 18 19 19
21 22 23 23 25 25 25 25 23 22 22 19 17 17 17 17 17 17 18 18 19 19 19 20 20 20 20 20 20 19 20 19 19 19 19 19 19 19 19 19 19 19 18 18 19 19 19 19 19
22 22 23 24 25 25 25 25 24 21 20 18 17 17 17 18 17 17 18 18 19 19 20 20 20 21 20 20 20 20 19 19 19 19 19 19 19 19 19 19 19 19 19 19 18 18 18 19 19
23 22 23 25 25 25 26 24 23 20 19 18 18 18 18 18 18 18 19 19 19 19 20 20 21 21 21 20 20 19 19 19 19 19 20 19 19 19 19 19 19 19 19 19 18 18 18 18 19
22 21 20 24 25 26 25 23 21 19 19 18 18 18 18 18 18 18 18 19 19 20 19 20 21 21 21 20 20 19 19 20 19 19 20 19 19 19 19 19 19 19 19 19 19 19 19 19 19
20 20 21 23 25 26 24 23 21 19 19 19 18 18 18 18 18 19 19 19 19 20 20 20 21 21 20 20 20 19 19 20 20 20 20 19 19 19 19 19 19 19 19 19 19 19 19 19 19
18 20 22 22 24 24 23 23 20 20 19 19 19 19 19 18 18 19 19 19 19 20 20 21 20 21 20 20 20 19 19 20 20 20 20 20 20 20 20 20 19 19 19 19 19 19 19 19 19
22 22 23 24 25 25 24 24 21 20 20 19 19 19 19 19 19 19 19 20 19 20 20 21 20 20 20 20 20 19 19 19 20 20 20 20 20 20 20 19 20 19 19 19 19 19 19 19 19
20 20 21 23 25 25 25 24 22 20 20 20 19 19 19 19 19 19 20 19 20 20 20 20 21 20 20 20 20 20 20 20 20 20 20 20 19 19 19 19 19 19 19 19 19 19 19 19 19
20 20 21 22 24 25 26 25 25 21 21 21 20 20 19 20 19 19 19 20 20 20 20 20 21 21 21 20 20 20 20 20 20 20 20 20 20 20 19 19 19 19 19 19 19 19 19 19 19
18 22 23 23 23 23 25 21 24 22 21 21 21 20 20 20 20 20 20 20 20 21 21 20 21 21 21 21 20 20 20 20 20 20 20 20 20 20 19 19 19 19 19 19 19 19 19 19 19
21 22 22 23 22 22 24 21 22 23 21 21 21 21 21 21 20 21 21 22 21 21 21 21 21 21 21 21 21 21 21 21 21 20 20 20 19 20 19 19 19 19 19 19 19 19 19 19 19
23 23 22 22 19 21 23 21 21 23 23 22 23 23 22 22 21 22 23 22 22 22 22 22 22 21 21 21 21 21 21 21 21 21 21 20 20 20 20 20 19 19 19 19 19 19 19 19 19
22 19 17 18 18 21 21 21 24 24 25 24 24 24 23 23 23 22 21 21 22 22 22 22 22 22 22 22 22 21 21 21 22 22 21 20 20 20 20 20 19 19 19 19 19 19 19 19 19
20 19 16 17 17 21 21 19 22 25 26 26 25 25 24 23 23 24 23 23 23 23 23 23 22 22 22 22 22 22 22 22 21 21 21 21 20 20 20 20 20 20 19 19 19 19 19 19 19
21 20 20 18 18 19 22 21 24 24 25 25 26 25 25 23 23 23 24 23 23 23 23 24 23 23 23 22 22 22 22 22 21 22 22 21 20 20 20 20 20 20 20 19 19 19 19 19 19
22 21 20 17 18 18 19 21 25 22 23 24 25 25 25 24 24 24 24 24 24 24 24 24 24 24 24 23 23 23 23 22 22 21 22 21 21 20 20 20 20 20 20 20 20 20 20 20 19
20 22 21 20 18 21 18 21 21 23 24 24 25 26 25 24 24 25 25 24 24 23 23 24 24 24 23 23 23 23 23 22 22 22 22 22 21 21 20 20 20 20 20 20 20 20 20 20 20
13 20 19 22 19 17 21 23 24 23 22 25 26 26 26 25 25 25 25 25 24 23 22 23 23 23 24 24 24 23 23 23 22 22 22 22 22 21 21 21 21 21 21 21 20 20 20 20 20
Height
1504 1507 1509 1510 1515 1509 1508 1498 1493 1497 1498 1495 1499 1500 1504 1510 1512 1524 1520 1526 1532 1535 1539 1543 1545 1547 1549 1551 1552 1554 1555 1555 1556 1557 1558 1558 1559 1559 1560 1560 1561 1563 1563 1564 1565 1565 1564 1564 1564
1505 1507 1509 1508 1509 1514 1505 1489 1493 1491 1493 1495 1500 1502 1506 1512 1513 1516 1521 1528 1533 1536 1540 1544 1547 1549 1551 1553 1554 1555 1556 1557 1557 1559 1560 1560 1561 1561 1561 1562 1564 1564 1565 1566 1567 1567 1567 1567 1566
1506 1507 1508 1506 1510 1512 1506 1492 1492 1489 1492 1494 1500 1504 1508 1513 1514 1518 1523 1528 1534 1538 1542 1546 1549 1550 1552 1554 1555 1556 1558 1559 1560 1561 1562 1562 1562 1563 1564 1565 1565 1566 1567 1567 1568 1569 1569 1569 1569
1505 1507 1507 1507 1507 1500 1498 1493 1488 1489 1492 1493 1497 1506 1512 1514 1517 1521 1525 1530 1535 1539 1544 1547 1550 1552 1554 1555 1557 1558 1560 1561 1562 1562 1563 1564 1565 1566 1567 1567 1568 1568 1568 1569 1570 1570 1572 1571 1571
1505 1505 1507 1508 1502 1498 1493 1490 1488 1488 1491 1496 1498 1510 1513 1518 1519 1523 1527 1532 1536 1540 1545 1549 1551 1553 1555 1557 1559 1560 1562 1563 1564 1565 1566 1567 1567 1568 1569 1569 1570 1571 1571 1572 1573 1572 1573 1574 1574
1504 1503 1508 1511 1504 1496 1492 1491 1491 1490 1496 1499 1503 1508 1516 1521 1523 1526 1530 1534 1539 1542 1546 1550 1553 1555 1557 1559 1560 1562 1563 1565 1566 1566 1568 1569 1570 1570 1571 1571 1572 1573 1573 1574 1574 1574 1574 1576 1577
1503 1504 1506 1501 1496 1491 1489 1491 1493 1494 1498 1500 1502 1510 1516 1521 1525 1529 1533 1537 1540 1544 1547 1550 1554 1556 1558 1560 1562 1563 1565 1567 1567 1568 1570 1571 1572 1572 1573 1574 1574 1575 1576 1576 1577 1577 1577 1578 1579
1501 1502 1504 1499 1499 1496 1488 1489 1491 1496 1499 1501 1502 1508 1513 1518 1524 1530 1535 1539 1543 1546 1549 1551 1554 1557 1559 1561 1563 1565 1567 1568 1569 1570 1572 1573 1573 1574 1575 1577 1576 1577 1578 1579 1580 1581 1581 1581 1582
1501 1504 1505 1496 1495 1493 1490 1490 1492 1495 1497 1500 1501 1502 1510 1518 1524 1530 1535 1540 1543 1547 1550 1552 1555 1558 1560 1562 1564 1566 1569 1570 1571 1572 1574 1575 1576 1576 1577 1578 1579 1579 1580 1581 1582 1583 1583 1583 1584
1500 1504 1493 1483 1485 1491 1485 1490 1493 1494 1494 1500 1501 1507 1514 1519 1524 1528 1533 1537 1542 1546 1549 1553 1555 1559 1561 1563 1566 1568 1570 1572 1573 1574 1576 1577 1578 1578 1579 1580 1580 1582 1582 1584 1584 1585 1586 1586 1585
1493 1495 1484 1481 1480 1486 1490 1493 1492 1492 1496 1494 1495 1504 1512 1518 1523 1527 1533 1537 1540 1545 1549 1553 1556 1559 1562 1564 1566 1569 1571 1573 1574 1575 1577 1579 1580 1580 1581 1581 1582 1583 1584 1585 1586 1587 1588 1587 1587
1493 1484 1482 1478 1482 1484 1486 1489 1489 1490 1491 1492 1493 1496 1506 1515 1520 1525 1530 1535 1540 1545 1549 1552 1556 1559 1562 1565 1568 1570 1573 1574 1575 1576 1578 1579 1580 1582 1582 1582 1583 1585 1586 1586 1587 1588 1589 1589 1589
1489 1483 1481 1480 1482 1483 1484 1484 1486 1490 1491 1495 1501 1507 1508 1515 1522 1527 1531 1536 1540 1544 1548 1552 1555 1559 1562 1565 1568 1570 1573 1575 1577 1577 1579 1580 1582 1583 1583 1584 1584 1586 1587 1588 1588 1589 1589 1590 1591
1478 1483 1480 1479 1476 1482 1484 1484 1483 1491 1493 1502 1501 1506 1511 1513 1519 1526 1530 1535 1539 1543 1547 1551 1555 1559 1563 1566 1568 1571 1574 1575 1577 1578 1579 1581 1583 1584 1584 1585 1585 1587 1588 1588 1589 1589 1590 1591 1592
1479 1483 1479 1477 1476 1478 1481 1486 1484 1488 1493 1502 1502 1508 1513 1515 1519 1522 1526 1532 1536 1541 1546 1549 1554 1558 1562 1565 1568 1571 1574 1575 1577 1579 1581 1583 1584 1585 1585 1586 1586 1587 1588 1589 1590 1590 1590 1592 1593
1477 1483 1493 1470 1474 1475 1480 1491 1484 1486 1491 1501 1505 1508 1513 1517 1519 1524 1527 1531 1535 1540 1543 1548 1553 1557 1561 1565 1568 1571 1573 1575 1577 1579 1581 1582 1583 1584 1586 1587 1587 1588 1589 1590 1590 1591 1592 1593 1593
1481 1492 1486 1477 1470 1473 1478 1483 1483 1485 1492 1499 1504 1505 1508 1513 1517 1521 1525 1529 1533 1537 1542 1546 1550 1555 1559 1564 1567 1570 1572 1574 1576 1578 1580 1582 1583 1584 1586 1586 1586 1588 1589 1590 1591 1592 1593 1593 1594
1489 1485 1478 1480 1469 1471 1476 1476 1480 1484 1489 1496 1501 1504 1505 1508 1508 1515 1521 1526 1531 1536 1540 1545 1549 1553 1558 1562 1566 1569 1571 1573 1575 1577 1579 1581 1583 1585 1586 1586 1586 1588 1589 1591 1592 1593 1593 1594 1594
1470 1472 1475 1467 1463 1469 1470 1472 1478 1480 1488 1493 1497 1499 1501 1502 1508 1513 1519 1523 1528 1533 1537 1541 1546 1550 1555 1559 1562 1566 1568 1572 1574 1576 1578 1580 1583 1585 1586 1586 1587 1587 1589 1590 1591 1592 1593 1594 1595
1471 1476 1476 1465 1461 1466 1466 1469 1470 1476 1475 1477 1484 1490 1491 1498 1504 1508 1513 1518 1521 1527 1533 1537 1541 1546 1551 1556 1559 1563 1567 1570 1574 1575 1577 1579 1582 1584 1586 1587 1587 1588 1589 1590 1591 1592 1594 1594 1595
1470 1474 1473 1471 1463 1459 1464 1471 1467 1471 1477 1483 1483 1487 1494 1491 1495 1501 1506 1510 1516 1520 1526 1531 1536 1541 1547 1552 1556 1560 1565 1568 1570 1573 1576 1578 1580 1583 1585 1586 1587 1587 1588 1590 1591 1592 1594 1595 1597
1476 1458 1462 1466 1474 1482 1460 1495 1466 1467 1473 1475 1477 1480 1487 1489 1491 1496 1501 1505 1507 1512 1521 1528 1532 1537 1542 1547 1552 1556 1559 1562 1566 1570 1574 1577 1579 1582 1584 1585 1586 1587 1588 1589 1591 1593 1594 1596 1597
1453 1453 1460 1463 1472 1474 1463 1485 1470 1459 1471 1465 1465 1470 1475 1481 1484 1487 1491 1496 1501 1508 1513 1521 1528 1533 1538 1542 1548 1552 1555 1559 1563 1568 1572 1575 1577 1580 1582 1583 1585 1586 1587 1589 1591 1592 1593 1595 1597
1446 1452 1459 1463 1475 1482 1461 1475 1472 1460 1452 1450 1453 1460 1464 1473 1476 1478 1485 1493 1498 1503 1508 1514 1521 1526 1532 1537 1543 1547 1551 1555 1559 1563 1567 1571 1574 1576 1579 1581 1583 1585 1586 1587 1589 1591 1593 1595 1595
1445 1462 1491 1494 1491 1473 1456 1467 1449 1440 1435 1437 1439 1447 1453 1464 1470 1474 1480 1487 1491 1497 1501 1508 1514 1519 1526 1531 1537 1542 1547 1551 1555 1559 1563 1567 1570 1571 1575 1578 1580 1582 1584 1586 1588 1589 1592 1593 1594
1443 1452 1479 1491 1488 1464 1452 1464 1445 1427 1422 1427 1432 1435 1446 1455 1463 1467 1470 1475 1481 1487 1492 1499 1506 1514 1519 1525 1531 1537 1542 1547 1551 1555 1559 1563 1566 1569 1572 1575 1578 1581 1583 1584 1586 1588 1590 1592 1593
1433 1441 1438 1461 1463 1465 1444 1438 1426 1423 1423 1423 1428 1437 1445 1447 1454 1457 1465 1468 1473 1479 1483 1489 1497 1505 1512 1518 1525 1531 1536 1541 1545 1550 1554 1558 1562 1566 1569 1572 1575 1578 1580 1582 1584 1585 1587 1588 1590
1416 1424 1449 1456 1472 1475 1456 1441 1426 1429 1427 1421 1421 1428 1434 1438 1448 1452 1458 1461 1463 1468 1474 1482 1489 1496 1503 1512 1518 1524 1530 1535 1540 1544 1548 1552 1557 1561 1565 1568 1572 1575 1577 1579 1580 1582 1583 1585 1587
1420 1417 1420 1431 1448 1449 1469 1438 1408 1413 1414 1417 1414 1416 1421 1427 1434 1439 1447 1453 1458 1464 1469 1475 1483 1490 1498 1505 1512 1518 1523 1529 1534 1538 1543 1547 1552 1556 1560 1564 1568 1570 1572 1575 1576 1578 1580 1581 1583
1427 1412 1420 1425 1442 1447 1434 1424 1396 1398 1404 1405 1406 1407 1410 1414 1420 1428 1438 1446 1452 1460 1463 1469 1476 1483 1490 1497 1505 1511 1517 1522 1527 1532 1537 1542 1546 1551 1555 1559 1563 1565 1567 1570 1572 1574 1575 1577 1579
Wind_Speed
11 11 9 2 1 2 3 3 4 4 4 4 32 5 9 6 2 2 28 33 32 33 31 27 24 25 23 22 21 21 20 19 19 18 18 18 18 17 16 16 16 15 15 14 13 12 13 13 13
12 13 7 2 3 2 3 4 6 7 8 17 16 14 6 3 5 20 36 35 33 33 30 27 24 24 22 21 20 20 18 19 20 19 17 18 17 17 17 16 15 15 15 14 12 13 14 16 16
12 6 2 1 1 2 2 3 0 7 13 11 7 12 5 5 12 39 35 36 35 32 30 27 24 23 22 20 19 19 18 19 19 19 17 17 17 16 16 16 15 14 13 13 13 14 14 14 16
10 4 2 1 2 4 4 11 9 7 10 8 17 10 7 2 37 27 39 36 35 31 30 27 24 22 21 19 18 17 18 19 19 16 17 18 18 18 19 19 18 16 14 13 14 14 13 13 16
8 1 1 2 2 2 4 10 5 11 6 8 4 5 11 20 19 39 37 36 35 32 29 26 24 22 20 18 17 16 17 18 18 17 17 18 20 21 20 18 17 16 15 14 13 13 14 13 12
2 1 1 1 2 4 5 4 3 3 7 11 14 14 8 12 33 38 36 35 33 32 29 26 23 21 19 18 16 16 16 17 17 17 18 18 19 18 18 18 18 17 16 14 12 12 14 13 11
3 3 2 2 6 4 2 5 1 2 10 8 22 5 13 22 39 35 35 33 31 29 28 26 23 21 19 17 16 16 16 16 17 17 17 17 17 16 16 16 16 17 16 15 15 13 13 13 11
4 1 2 2 1 4 9 8 2 7 4 18 21 8 15 38 38 34 32 31 28 28 26 25 23 21 19 17 15 16 16 16 17 17 17 16 16 16 15 13 14 14 14 13 15 15 14 12 12
5 1 3 6 4 2 9 6 10 5 15 3 10 18 38 47 40 35 33 31 27 26 26 24 22 20 19 17 16 17 16 16 17 16 16 15 14 15 14 13 13 11 13 12 13 14 13 12 11
6 2 6 5 7 4 6 5 10 7 11 7 19 30 47 44 38 39 36 34 31 29 27 24 22 20 18 17 17 17 16 16 17 14 13 13 11 12 12 11 11 11 14 10 11 12 11 10 8
7 5 5 7 11 13 13 11 6 14 2 11 34 48 50 45 41 39 35 33 33 29 27 25 22 20 18 17 17 16 15 15 12 11 9 8 8 9 10 11 12 13 9 10 11 10 8 7 6
3 12 8 5 12 9 7 11 7 16 5 19 39 63 55 47 44 41 39 34 33 30 27 25 23 20 19 18 17 15 16 14 11 9 8 7 6 8 10 11 13 12 11 10 13 11 9 8 6
13 11 14 24 16 8 8 13 9 18 2 28 44 46 51 48 42 34 36 33 32 30 28 26 23 21 20 19 18 17 15 15 10 11 10 7 9 9 10 9 11 12 11 10 10 8 8 7 5
8 19 20 16 21 9 7 3 15 13 26 31 46 44 45 48 42 36 37 35 35 30 29 27 25 22 21 20 20 17 16 14 11 10 10 7 6 6 9 8 8 8 10 7 7 7 8 8 10
14 7 8 13 17 6 5 3 6 28 34 34 40 40 39 41 41 43 40 38 36 32 28 28 26 24 24 22 21 18 14 11 10 9 9 5 7 6 6 7 7 8 10 7 6 6 5 6 10
5 4 3 7 7 7 12 5 12 32 33 31 33 37 37 35 40 40 40 37 36 32 30 29 28 26 27 24 23 18 12 13 13 12 9 6 3 6 6 6 9 9 8 7 5 7 7 6 7
3 4 6 8 13 6 9 4 16 32 30 29 31 35 37 36 37 40 41 40 36 34 30 32 30 28 29 27 24 18 14 12 14 12 11 7 1 4 3 4 5 6 7 7 6 5 5 10 9
6 4 4 6 8 9 8 3 16 30 30 29 31 32 33 37 45 45 43 42 39 35 32 32 31 29 29 27 24 20 17 15 14 12 12 9 3 2 3 2 4 7 7 6 5 6 8 12 7
4 5 6 6 7 15 17 11 18 28 26 28 30 33 34 38 43 44 44 39 41 39 37 35 35 33 32 31 29 27 24 21 17 13 13 12 8 5 2 5 5 8 7 7 6 6 7 7 10
7 5 6 7 5 14 16 17 18 21 31 40 38 38 40 37 40 45 48 43 44 42 42 40 38 37 36 35 30 28 27 27 22 17 13 13 12 8 6 6 7 8 8 7 7 8 9 8 9
13 13 9 8 2 8 6 17 14 22 19 25 32 36 34 41 44 46 47 50 49 47 47 46 41 40 40 37 35 32 29 29 29 25 21 16 14 12 10 7 11 10 10 8 9 9 7 11 11
13 13 15 11 3 5 8 5 14 20 20 20 32 35 37 40 42 44 47 50 52 53 51 47 46 43 43 42 37 33 30 35 33 32 26 21 16 14 13 10 9 13 13 12 9 10 10 11 13
13 6 8 8 4 2 13 2 6 17 18 24 28 36 42 43 44 50 52 52 54 54 53 50 48 47 43 45 40 35 31 32 35 34 29 26 21 17 15 13 10 13 14 13 10 9 12 11 14
4 4 3 2 4 10 16 7 5 17 22 27 33 39 42 43 45 52 54 51 50 55 55 54 52 50 47 48 44 39 34 30 31 32 34 31 27 24 21 16 13 13 15 14 12 10 13 11 9
10 9 4 4 5 12 8 6 13 21 24 25 28 43 45 43 41 42 45 49 54 53 56 55 55 52 49 51 47 41 36 32 30 30 31 31 27 26 23 19 17 15 15 15 14 13 13 15 13
11 12 6 9 4 10 5 7 6 16 24 36 42 47 45 40 38 41 45 55 55 57 58 56 56 56 51 54 49 43 39 34 31 30 30 31 30 26 21 20 18 17 15 15 14 16 15 14 14
12 19 10 4 3 3 4 4 5 8 12 21 30 31 36 41 43 47 46 49 55 56 58 58 57 55 54 56 51 46 41 37 34 32 30 31 30 24 23 20 20 18 16 15 16 16 18 18 18
16 8 9 5 9 6 4 5 9 13 11 18 21 25 32 43 44 41 44 49 53 56 57 56 56 56 54 56 52 48 43 38 35 34 34 31 30 28 27 24 22 20 19 18 17 18 17 19 19
6 14 7 6 4 11 2 8 6 11 17 16 20 33 37 43 49 50 44 50 53 51 54 56 58 57 57 55 51 49 46 42 38 35 35 33 31 30 28 26 24 22 21 21 20 21 19 20 20
8 8 8 10 14 2 7 14 2 10 11 18 26 34 41 46 49 53 49 46 50 47 48 56 58 59 57 52 51 51 47 43 42 37 34 34 33 31 30 29 26 25 24 23 26 25 25 24 23
Wind_Direction
149 147 151 184 231 220 258 212 142 170 205 216 170 184 146 59 121 180 148 156 155 152 149 148 143 139 135 131 127 124 123 121 118 119 121 120 119 121 123 124 126 127 121 119 111 99 107 110 106
156 158 168 255 267 210 269 122 179 186 178 130 127 107 67 86 115 142 149 155 155 152 151 150 145 139 135 131 127 122 118 117 118 114 113 117 112 109 117 122 124 121 115 112 110 106 110 113 107
153 160 270 141 324 266 291 358 243 203 168 134 116 91 90 97 140 147 151 153 155 153 151 149 144 141 137 133 128 122 118 118 116 116 114 113 116 117 115 115 115 114 113 110 104 115 120 112 115
155 196 264 211 299 292 304 317 258 169 121 89 121 75 80 209 145 153 151 155 155 151 151 149 146 145 140 135 128 122 121 120 114 113 113 111 109 109 108 105 104 105 107 109 105 111 128 129 118
174 213 153 183 244 216 300 287 311 158 72 80 57 92 101 129 151 151 153 155 155 152 152 151 151 148 144 137 130 128 123 124 123 118 115 113 110 108 104 103 103 100 100 99 103 109 127 134 116
114 272 308 246 257 276 194 260 344 132 102 113 105 113 119 150 154 154 155 155 156 153 153 152 154 151 145 138 133 132 126 126 126 124 121 117 114 109 104 101 97 97 93 88 101 112 130 135 113
187 155 206 271 329 329 170 152 127 92 140 122 132 95 130 152 155 157 156 156 156 155 155 155 156 151 147 141 136 134 131 131 129 126 124 122 118 113 104 102 100 100 97 93 92 103 122 134 115
216 157 205 200 308 288 330 139 249 211 100 141 141 162 155 159 157 157 158 158 158 161 161 160 158 155 150 144 138 137 139 134 129 128 129 130 127 118 114 107 105 108 103 101 92 93 120 123 116
184 191 231 182 194 301 332 156 149 179 139 157 183 158 157 158 158 157 160 163 163 166 168 166 160 157 154 145 141 140 143 136 132 131 134 134 132 124 121 117 110 105 104 102 102 101 111 120 116
200 206 211 225 164 123 266 172 169 144 134 83 113 144 152 158 160 162 166 167 170 170 172 171 165 161 159 148 144 144 146 137 133 133 141 139 136 127 120 122 120 117 115 109 110 108 109 121 115
183 214 210 225 219 155 193 200 167 129 194 190 150 152 157 161 164 167 171 174 175 174 176 174 170 168 162 155 151 152 147 143 144 152 154 143 120 124 121 120 123 121 122 130 125 115 124 137 138
245 238 241 234 198 190 174 163 140 168 233 201 168 158 160 165 168 173 175 177 178 181 179 177 176 173 167 163 156 153 151 145 139 152 138 149 157 142 123 124 132 123 129 134 130 116 103 101 110
229 257 251 251 255 229 172 182 185 202 250 163 155 159 164 167 169 176 180 180 182 185 183 182 181 178 172 168 161 159 152 143 137 134 136 129 135 134 157 114 140 132 132 127 145 113 106 101 98
193 232 258 275 264 213 189 178 147 156 154 156 160 166 170 170 174 177 185 186 186 184 186 186 187 181 176 170 166 159 156 152 146 135 124 118 159 160 129 146 139 148 143 137 140 141 121 126 124
256 299 292 262 245 216 175 216 187 152 155 164 168 174 176 178 180 182 187 190 189 188 187 191 190 184 176 171 169 173 171 182 175 144 140 129 156 165 157 158 156 148 155 135 129 153 150 135 128
165 155 249 269 174 217 163 225 144 154 156 170 174 176 186 188 190 190 193 195 194 190 193 193 192 189 182 180 177 183 190 190 183 176 175 181 176 164 152 148 162 157 158 147 138 111 122 146 141
292 194 185 272 207 173 192 158 164 160 164 173 180 181 185 190 198 196 196 199 198 196 195 193 194 192 189 186 186 193 199 194 186 180 181 187 126 166 181 167 156 163 160 142 159 150 146 153 167
186 192 196 209 192 179 202 205 162 171 171 181 186 189 189 194 199 197 197 203 203 205 202 196 195 193 192 192 193 199 203 204 198 191 194 193 173 156 197 183 191 177 165 178 171 161 161 172 172
170 177 185 211 219 192 214 200 178 179 178 184 193 196 197 200 202 201 198 204 203 209 208 205 204 201 200 200 199 202 209 210 208 201 199 206 205 209 218 216 194 192 195 204 180 173 177 166 183
243 241 241 284 208 195 211 218 190 180 192 189 191 198 202 200 203 204 201 204 208 210 213 211 214 214 209 208 207 209 211 217 216 213 211 210 218 216 227 231 217 217 215 205 206 198 188 205 172
217 220 229 222 73 206 221 237 181 201 199 200 197 206 210 202 202 204 206 205 208 211 213 214 218 221 217 215 214 216 217 219 219 217 217 213 216 220 224 247 229 227 214 201 197 184 195 188 176
215 208 226 241 156 216 184 249 204 188 199 202 205 199 214 210 209 208 208 210 207 213 213 218 221 222 221 218 217 219 222 220 221 222 223 224 222 221 223 239 233 222 217 216 206 206 203 208 198
227 191 205 233 209 257 256 171 222 184 206 206 212 206 210 212 209 209 210 210 207 208 211 216 220 223 221 220 219 219 224 227 226 226 224 227 226 229 228 230 239 231 225 215 216 217 209 209 212
166 209 202 106 166 243 243 166 239 192 208 204 210 212 210 211 208 214 212 210 210 209 212 215 218 224 223 220 220 221 224 228 227 227 227 225 227 230 234 233 238 239 232 221 222 231 212 216 229
195 148 237 234 202 233 201 213 223 203 214 208 199 210 212 210 209 212 209 211 212 210 214 216 218 221 225 221 221 224 227 232 232 227 220 217 217 221 225 227 231 237 232 230 231 228 221 221 226
208 195 170 188 186 222 199 209 233 199 221 216 214 202 204 205 210 213 214 215 211 212 216 217 219 222 224 222 223 226 230 233 233 231 226 221 220 224 224 227 232 237 240 233 235 228 231 230 225
197 208 193 91 320 161 219 259 231 203 221 214 218 214 209 205 206 218 213 214 213 214 218 220 222 223 224 222 224 227 230 234 235 232 229 226 225 225 226 228 232 236 238 241 234 235 231 233 231
207 164 190 216 193 218 275 218 221 166 204 219 226 213 210 211 208 214 211 212 216 219 220 221 223 223 222 222 225 229 232 235 237 235 232 229 228 228 230 231 232 238 243 242 234 233 234 235 238
202 205 206 169 186 219 241 244 212 180 186 200 221 221 212 209 208 213 208 212 214 218 219 223 222 221 222 223 226 230 232 234 237 238 235 233 231 229 230 230 231 236 232 232 233 239 239 242 242
275 208 165 199 214 237 243 243 271 232 170 193 206 215 217 211 209 211 210 209 210 209 218 219 221 221 224 227 229 230 232 236 236 238 238 235 233 230 230 229 229 228 227 232 240 242 244 245 248